Find NAOS

NORAD ID: 65317 Int'l Des: 2025-188 Owner: LUXDD/LUXEO Country: L operational
LEOCIRCULARRETROGRADESSO

Current View

Loading 3D Globe...

About NAOS

Description loading...

Upcoming Passes

Passes for default location (London). Set your location on the main map for personalized predictions.

Altitude History

Loading altitude history...

Two-Line Element Set

1 65317U 25188C 26151.48161534 .00007100 00000-0 18769-3 0 9995
2 65317 97.2038 227.0894 0001237 197.5712 162.5491 15.38717647 42698
Epoch: May 31, 2026 • Age: 7 hours

Current Status

Altitude 473.7 km
Velocity 7.63 km/s
Sub-Earth Point -63.53°S, 139.42°W
Launch Date Aug 26, 2025
Age 0.7 years
Type other

Technical Details

Classification Payload
Mass 645.00 kg
Dry Mass 645.00 kg
Total Mass 645.00 kg
Length 3.00 m
Diameter 1.80 m
Span 10.00 m
Shape Hex Cyl + 2 pan
Manufacturer OHBI
Bus Type NAOS
Phase Status In Orbit
Owner/State LUXDD/LUXEO/L

Most Searched